This is the latest recevied weather packets stored in our database for station/object OK1CBR-13. If no packets are shown the sender has not sent any weather packets the latest 10 day(s).
| Time | Temp. | Humidity | Pressure | Rain* | Wind** | Luminosity | Snow |
|---|---|---|---|---|---|---|---|
| 1777487852 | 7.78° C | 33% | 1029.8 hPa | - | - | - | - |
| 1777487252 | 8.33° C | 32% | 1029.6 hPa | - | - | - | - |
| 1777486652 | 8.89° C | 31% | 1029.5 hPa | - | - | - | - |
| 1777486052 | 8.89° C | 30% | 1029.4 hPa | - | - | - | - |
| 1777485452 | 9.44° C | 29% | 1029.2 hPa | - | - | - | - |
| 1777484852 | 10° C | 29% | 1029.1 hPa | - | - | - | - |
| 1777484252 | 10.56° C | 29% | 1029 hPa | - | - | - | - |
| 1777483652 | 11.11° C | 26% | 1028.8 hPa | - | - | - | - |
| 1777483052 | 12.78° C | 25% | 1028.6 hPa | - | - | - | - |
| 1777482452 | 13.33° C | 23% | 1028.5 hPa | - | - | - | - |
| 1777481852 | 13.89° C | 23% | 1028.4 hPa | - | - | - | - |
| 1777481252 | 14.44° C | 21% | 1028.3 hPa | - | - | - | - |
| 1777480652 | 15° C | 21% | 1028.3 hPa | - | - | - | - |
| 1777480052 | 15.56° C | 21% | 1028.2 hPa | - | - | - | - |
| 1777479452 | 16.11° C | 20% | 1028.1 hPa | - | - | - | - |
| 1777478852 | 16.67° C | 20% | 1027.9 hPa | - | - | - | - |
| 1777478255 | 17.22° C | 20% | 1028 hPa | - | - | - | - |
| 1777477051 | 17.22° C | 20% | 1027.8 hPa | - | - | - | - |
| 1777476451 | 16.67° C | 19% | 1027.8 hPa | - | - | - | - |
| 1777475851 | 17.22° C | 20% | 1027.7 hPa | - | - | - | - |
| 1777475251 | 16.67° C | 20% | 1027.6 hPa | - | - | - | - |
| 1777474651 | 17.22° C | 20% | 1027.6 hPa | - | - | - | - |
| 1777474051 | 17.22° C | 21% | 1027.5 hPa | - | - | - | - |
| 1777473451 | 16.67° C | 20% | 1027.5 hPa | - | - | - | - |
| 1777472851 | 16.67° C | 21% | 1027.5 hPa | - | - | - | - |
* Rain since midnight (hover to see other rain measurements)
** Current wind speed in m/s (hover to see current wind gust speed)